Regional Weather Roundup
Issued by NWS Wakefield, VA

Home | Current Version | Previous Version | Graphics & Text | Print | Product List | Glossary On
Versions: 1 2 3 4 5 6 7 8 9 10 11 12 13 14 15 16 17 18 19 20 21 22 23 24 25 26 27 28 29 30 31 32 33 34 35 36 37 38 39 40 41 42 43 44 45 46 47 48 49 50
843
ASUS41 KAKQ 201815
RWRAKQ

REGIONAL WEATHER ROUNDUP
NATIONAL WEATHER SERVICE WAKEFIELD VA
100 PM EST TUE FEB 20 2018

Note: "fair" indicates few or no clouds below 12,000 feet with no
significant weather and/or obstructions to visibility. * = Denotes
station may not report precipitation (e.g., rain,snow,etc.),
thunder or fog.

VAZ042-051-052>054-056-201900-
NORTHERN VIRGINIA

CITY           SKY/WX    TMP DP  RH WIND       PRES   REMARKS
WASH NATIONAL  FAIR      71  58  63 S13       30.32F
DULLES         FAIR      74  58  57 S20G28    30.30F
FORT BELVOIR   FAIR      73  58  59 S10G18    30.32F
QUANTICO       NOT AVBL
FREDERICKSBRG* FAIR      74  60  63 S16G22    30.34F
STAFFORD*      FAIR      74  60  61 S13       30.38F
WARRENTON      FAIR      77  55  46 S15G22    30.32F
CULPEPER*      FAIR      76  56  50 SW15G23   30.32F
MANASSAS*      FAIR      76  59  55 SW15      30.31F
LEESBURG*      FAIR      73  57  56 S10G18    30.31F
WINCHESTER     FAIR      73  55  53 SW7       30.28F
FRONT ROYAL*   FAIR      77  54  44 S13G20    30.27F
LURAY*         FAIR      77  54  44 S14G24    30.29F
$$

VAZ048-049-060>072-079>083-201900-
CENTRAL AND SOUTH CENTRAL VIRGINIA

CITY           SKY/WX    TMP DP  RH WIND       PRES   REMARKS
RICHMOND       FAIR      74  61  63 SW21      30.38F
CHESTERFIELD*  FAIR      75  62  64 SW14      30.39F
PETERSBURG*    NOT AVBL
HANOVER        FAIR      75  59  57 SW18G24   30.38F
TAPPAHANNOCK*  FAIR      73  62  69 S8        30.39F
QUINTON*       FAIR      70  62  74 S12G21    30.39F
CHARLOTTSVILLE FAIR      75  57  53 S18       30.33F
GORDONSVILLE*  FAIR      73  60  63 SW21      30.33F
ORANGE*        FAIR      72  57  60 S14G20    30.33F
LOUISA*        FAIR      72  59  64 S9G16     30.40F
BUMPASS*       FAIR      70  58  63 SW10G24   30.38F
FARMVILLE*     FAIR      75  59  57 SW15G25   30.37F
CREWE*         MOCLDY    74  61  65 SW8       30.40F
FORT PICKETT*  FAIR      71  63  75 SW14G20   30.41F
CHASE CITY*    MOCLDY    69  63  81 S6        30.42F
CLARKSVILLE*   CLOUDY    66  63  88 SW5       30.42F
SOUTH HILL*    CLOUDY    64  63  96 SW6       30.49F
LAWRENCEVILLE* CLOUDY    64  61  91 SW8       30.43F
EMPORIA*       CLOUDY    61  61 100 SE5       30.46F FOG
$$

VAZ088>098-201900-
SOUTHEAST VIRGINIA

CITY           SKY/WX    TMP DP  RH WIND       PRES   REMARKS
NORFOLK        CLOUDY    67  66  97 W6        30.43F FOG
VIRGINIA BEACH PTSUNNY   71  64  78 SW7       30.42F
NORFOLK NAVAL  CLOUDY    65  64  97 SW5       30.45F FOG
WEST POINT*    FAIR      67  61  80 S8        30.42F
SALUDA*        CLOUDY    65  64  94 SW9       30.41F
NEWPORT NEWS   CLOUDY    63  61  93 SW7       30.44F FOG
LANGLEY AFB    CLOUDY    63  63 100 SW8       30.44F FOG
FORT EUSTIS    FOG       61  61 100 S7        30.42F VSB 1
WILLIAMSBURG*  CLOUDY    64  63  94 CALM      30.44F
HR EXEC AP*    CLOUDY    66  65  96 SW5       30.45F
FRANKLIN*      CLOUDY    61  60  97 CALM      30.45F FOG
US460-WAKEFLD  CLOUDY    63  62  97 SW6       30.44F
$$

VAZ020-022-025-037-045-201900-
WEST CENTRAL AND SOUTHWEST VIRGINIA

CITY           SKY/WX    TMP DP  RH WIND       PRES   REMARKS
STAUNTON*      FAIR      73  54  51 SW10G23   30.35F
WAYNESBORO*    FAIR      74  53  47 S13G23    30.34F
HOT SPRINGS VA FAIR      63  51  64 S6        30.42F
LYNCHBURG      FAIR      71  57  61 SW16G28   30.38F
DANVILLE       CLOUDY    65  61  87 SW8       30.43F
SOUTH BOSTON*  CLOUDY    66  60  82 SW5       30.43F
MARTINSVILLE   CLOUDY    62  57  82 SW6       30.45F
ROANOKE        FAIR      71  57  61 S6        30.37F
BLACKSBURG     PTSUNNY   70  54  56 S14G21    30.40F
DUBLIN*        FAIR      72  54  52 S14G21    30.38F
MARION*        FAIR      75  46  35 CALM      30.38F
HILLSVILLE*    PTSUNNY   63  55  77 S18G24    30.41F
RICHLANDS*     FAIR      72  48  43 S12       30.36F
WISE*          FAIR      70  52  52 S10G20    30.36F
ABINGDON*      FAIR      75  51  43 W14       30.35F
$$

MDZ021>025-VAZ099-100-201900-
SOUTHERN MARYLAND AND THE DELMARVA PENINSULA

CITY           SKY/WX    TMP DP  RH WIND       PRES   REMARKS
PATUXENT RIVER NOT AVBL
BAY BRIDGE APT FAIR      68  57  68 S9        30.33F
LEONARDTOWN    FAIR      68  59  73 S10G16    30.39F
DOVER          MOSUNNY   72  59  63 SW15G22   30.32F
GEORGETOWN     FAIR      71  59  65 SW16G22   30.37F
EASTON         MOSUNNY   68  59  73 SW16      30.39F
CAMBRIDGE      SUNNY     66  59  77 S13       30.37F
SALISBURY      PTSUNNY   67  61  81 S18       30.40F
OCEAN CITY     CLOUDY    60  58  92 SW12G17   30.41F
WALLOPS ISLAND PTSUNNY   72  64  76 SW14G24   30.41F
ACCOMACK*      CLOUDY    66  63  89 SW8G18    30.43F
$$

NCZ012>017-030>032-201900-
NORTH CENTRAL AND EASTERN NORTH CAROLINA

CITY           SKY/WX    TMP DP  RH WIND       PRES   REMARKS
ROANOKE RAPIDS CLOUDY    61  61 100 SW6       30.45F FOG
RALEIGH        CLOUDY    64  61  90 W6        30.45F FOG
ELIZABETH CITY PTSUNNY   73  68  84 S15       30.44F
AHOSKIE*       CLOUDY    65  65 100 S6        30.44F
EDENTON*       FAIR      77  69  75 S7        30.44F
CURRITUCK*     CLOUDY    69  62  78 SW7       30.44F
KILL DEVIL HLS RAIN     N/A N/A N/A S3        30.45F
MANTEO         CLOUDY    68  63  84 S14       30.46F
CAPE HATTERAS  CLOUDY    72  66  81 S9        30.48F
TARBORO*       NOT AVBL
GOLDSBORO      FAIR      76  64  65 SW10      30.41F
WASHINGTON     CLOUDY    76  66  71 W6        30.44F
GREENVILLE     FAIR      77  64  65 SW10      30.43F
NEW BERN       PTSUNNY   75  65  70 S9        30.46F
WILMINGTON     PTSUNNY   76  65  68 S14       30.44F
$$

VAZ048-201900-
ELSEWHERE

CITY           SKY/WX    TMP DP  RH WIND       PRES   REMARKS
HARRISBURG PA  FAIR      63  54  72 CALM      30.27F
BALTIMORE      FAIR      73  58  59 S12G20    30.30F
ANNAPOLIS      FAIR      51  49  92 SE14      30.32F
ANDREWS AFB    FAIR      74  58  57 SW23G30   30.31F
PHILADELPHIA   FAIR      63  55  75 W13       30.33F
HENDERSON NC   CLOUDY    61  57  88 S6        30.44F
GREENSBORO     PTSUNNY   65  61  87 W10       30.42F
ROCKY MOUNT    CLOUDY    69  64  84 SW8       30.44F
$$

VAZ100-201900-
MARINE

STATION/POSITION TIME  TEMP    WIND        PRES    WAVE   SWELL
                       AIR SEA DIR/SP/G            HT/PER HT/PER
                 (UTC) (F)     (DEG/KT/KT) (MB)    (FT/S) (FT/S)
BRANDYWINE LGT   1736   60     230/ 19/ 21 1028.3F
CAPE MAY NJ      1742   62 42  210/ 12/ 16 1027.7F
LEWES DE         1748   70 42  240/ 14/ 19 1028.1F
15NM E FENWICK I 1750   47 43  190/ 12/ 12 1030.0F   4/ 6   3/ 6
OCEAN-CITY-INLET 1748   45 40  210/ 10/ 12 1030.1F
WACHAPREAGUE VA  1748   59 48  180/  7/  9 1030.3F
THOMAS POINT MD  1800   53 40  170/ 16/ 17   N/A
GOOSES REEF MD   1800   53 40  200/ 12/ 14 1028.3    1/ 3
COVE POINT MD    1748   66     220/ 14/ 18 1029.0F
SOLOMONS ISLAND  1748   63 42  220/ 12/ 18 1028.1F
BISHOPS HEAD MD  1748   54 50  190/  9/ 11 1029.6F
PINEY POINT MD   1736          240/  5/  8   N/A
POTOMAC MD       1800   54 44   40/ 10/ 12 1028.4    1/ 2
CAMBRIDGE MD     1748   68 44              1028.9F
LEWISETTA VA     1748   63 47  220/ 12/ 15 1028.9F
RAPPAHANNOCK LGT 1736          180/ 14/ 15 1031.0F
STINGRAY PT      1800   49 43  180/ 10/ 12 1032.4    0
YORK RVR RNG VA  1736   55     190/  6/  6 1031.4F
YORKTOWN VA      1736   62 44  220/  8/ 11 1030.4F
DOMINION TERM VA 1736   56     270/  3/  4 1031.4F
KIPTOPEKE VA     1736      44  150/  2/  3   N/A
CAPE HENRY VA    1736   55      CALM  /  1   N/A
S CRANEY ISL VA  1736   57     120/  1/  2 1030.9F
CAPE HENRY BUOY  1800      46                N/A     3/12   2/12
1ST LANDING BUOY 1800   50 44  140/  4/  6 1030.9    1/ 4
CAPE CHARLES BUO 1751      45                N/A     3/13   2/13
64NM E OF VA BCH 1750   54 51  190/  6/  6 1032.1F   4/11   3/11
DUCK PIER NC     1736   66 45  160/  5/  5 1031.0F
44100 DUCK FRF   1745      46                N/A     4/13   2/13
44056 DUCK FRF   1800      47                N/A     3/11   2/11
OREGON INLET NC  1736   63 52  180/  7/ 10 1032.0F
HATTERAS NC      1736   70 57  170/  7/  9 1032.2F
DIAMOND SHLS NC  1800   73 72  170/ 12/ 14 1032.6
CAPE LOOKOUT NC  1800          180/  9/ 11 1032.0F
$$




USA.gov is the U.S. government's official web portal to all federal, state and local government web resources and services.